^^
Datos históricos de la estación: Murcia-Puente Tocinos
 
Diario Informe para Marzo 29, 2017 Unidades:  Métrico    Inglés   Ambas
« Anterior Día
Siguiente Día »
Diario Semanal Mensual Anual Configurable
  Actual: Máximo: Mínimo: Media:
Temperatura: 12.1 °C 13.9 °C 12.1 °C 13.2 °C
Punto de rocio: 10.0 °C 12.3 °C 10.0 °C 11.1 °C
Humedad: 87% 90% 85% 87%
Velocidad viento: 3.2km/h 8.4km/h 0.0km/h 4.3km/h
Racha viento: 13.0km/h 13.0km/h - -
VientoWest - - Sur
Presión: 1025.3 hPa 1026.6 hPa 1024.9 hPa -
Precipitación: 0.0 mm      
Historical Graphs
 
 
Tabla de datos para Marzo 29, 2017
Hora Temperatura Punto de rocio Presión Viento Velocidad viento Racha viento Humedad Intensidad lluvia(por hora) Nubes
00:03 13.8 °C 12.0 °C 1026.6 hPa NNE 8.4 km/h 8.4 km/h 89% 0.0 mm CLR
00:08 13.8 °C 12.0 °C 1026.6 hPa NNE 8.4 km/h 8.4 km/h 89% 0.0 mm CLR
00:13 13.8 °C 12.0 °C 1026.6 hPa NNE 8.4 km/h 8.4 km/h 89% 0.0 mm CLR
00:18 13.8 °C 12.0 °C 1026.6 hPa NNE 8.4 km/h 8.4 km/h 89% 0.0 mm CLR
00:23 13.8 °C 12.0 °C 1026.6 hPa NNE 8.4 km/h 8.4 km/h 89% 0.0 mm CLR
00:28 13.8 °C 12.0 °C 1026.6 hPa NNE 8.4 km/h 8.4 km/h 89% 0.0 mm CLR
00:33 13.8 °C 12.0 °C 1026.6 hPa NNE 8.4 km/h 8.4 km/h 89% 0.0 mm CLR
00:38 13.8 °C 12.0 °C 1026.6 hPa NNE 8.4 km/h 8.4 km/h 89% 0.0 mm CLR
00:43 13.8 °C 12.0 °C 1026.6 hPa NNE 8.4 km/h 8.4 km/h 89% 0.0 mm CLR
00:48 13.8 °C 12.0 °C 1026.6 hPa NNE 8.4 km/h 8.4 km/h 89% 0.0 mm CLR
00:53 13.8 °C 12.0 °C 1026.6 hPa NNE 8.4 km/h 8.4 km/h 89% 0.0 mm CLR
00:58 13.8 °C 12.0 °C 1026.6 hPa NNE 8.4 km/h 8.4 km/h 89% 0.0 mm CLR
01:09 13.9 °C 12.1 °C 1026.6 hPa NNE 3.2 km/h 8.0 km/h 89% 0.0 mm FEW
01:14 13.9 °C 12.3 °C 1026.6 hPa NNE 1.6 km/h 8.0 km/h 90% 0.0 mm FEW
01:19 13.9 °C 12.3 °C 1026.6 hPa NE 2.3 km/h 7.4 km/h 90% 0.0 mm CLR
01:24 13.9 °C 12.1 °C 1026.6 hPa NNE 1.6 km/h 4.8 km/h 89% 0.0 mm FEW
01:29 13.9 °C 12.1 °C 1026.6 hPa WNW 2.3 km/h 7.4 km/h 89% 0.0 mm CLR
01:34 13.9 °C 12.1 °C 1026.6 hPa WNW 2.3 km/h 7.4 km/h 89% 0.0 mm CLR
01:39 13.9 °C 12.3 °C 1026.3 hPa WNW 3.2 km/h 7.4 km/h 90% 0.0 mm CLR
01:44 13.8 °C 12.2 °C 1026.3 hPa West 3.2 km/h 4.8 km/h 90% 0.0 mm FEW
01:49 13.8 °C 12.2 °C 1026.3 hPa SW 3.2 km/h 3.2 km/h 90% 0.0 mm FEW
01:54 13.8 °C 12.2 °C 1026.3 hPa SW 2.9 km/h 7.4 km/h 90% 0.0 mm FEW
01:59 13.9 °C 11.9 °C 1026.3 hPa SSE 2.3 km/h 9.5 km/h 88% 0.0 mm CLR
02:04 13.9 °C 11.6 °C 1026.3 hPa South 2.3 km/h 10.0 km/h 86% 0.0 mm CLR
02:09 13.9 °C 11.6 °C 1026.3 hPa South 5.8 km/h 10.0 km/h 86% 0.0 mm CLR
02:14 13.9 °C 11.4 °C 1026.3 hPa South 5.8 km/h 13.0 km/h 85% 0.0 mm CLR
02:19 13.8 °C 11.3 °C 1026.3 hPa SSW 6.9 km/h 13.0 km/h 85% 0.0 mm CLR
02:24 13.7 °C 11.2 °C 1026.3 hPa South 6.9 km/h 13.0 km/h 85% 0.0 mm CLR
02:29 13.6 °C 11.1 °C 1026.3 hPa SSE 6.9 km/h 13.0 km/h 85% 0.0 mm CLR
02:34 13.6 °C 11.1 °C 1026.3 hPa South 8.0 km/h 9.7 km/h 85% 0.0 mm CLR
02:39 13.6 °C 11.1 °C 1026.3 hPa SSW 4.8 km/h 9.7 km/h 85% 0.0 mm CLR
02:44 13.6 °C 11.3 °C 1026.3 hPa SSW 5.8 km/h 13.0 km/h 86% 0.0 mm CLR
02:49 13.6 °C 11.3 °C 1026.3 hPa SW 4.7 km/h 13.0 km/h 86% 0.0 mm CLR
02:54 13.6 °C 11.3 °C 1026.0 hPa SW 3.2 km/h 8.0 km/h 86% 0.0 mm CLR
02:59 13.6 °C 11.3 °C 1026.0 hPa SW 4.7 km/h 13.0 km/h 86% 0.0 mm CLR
03:09 13.6 °C 11.3 °C 1026.0 hPa WSW 3.2 km/h 8.0 km/h 86% 0.0 mm CLR
03:14 13.6 °C 11.3 °C 1026.0 hPa SW 4.7 km/h 13.0 km/h 86% 0.0 mm CLR
03:19 13.5 °C 11.2 °C 1026.0 hPa SW 3.2 km/h 8.0 km/h 86% 0.0 mm CLR
03:24 13.5 °C 11.2 °C 1025.6 hPa SW 3.9 km/h 13.0 km/h 86% 0.0 mm CLR
03:29 13.5 °C 11.2 °C 1025.6 hPa South 3.9 km/h 13.0 km/h 86% 0.0 mm CLR
03:34 13.5 °C 11.2 °C 1025.6 hPa WSW 3.9 km/h 13.0 km/h 86% 0.0 mm CLR
03:39 13.5 °C 11.2 °C 1025.6 hPa SW 3.2 km/h 8.0 km/h 86% 0.0 mm CLR
03:44 13.5 °C 11.2 °C 1025.6 hPa WSW 3.2 km/h 4.8 km/h 86% 0.0 mm CLR
03:49 13.4 °C 11.1 °C 1025.6 hPa WSW 3.2 km/h 6.4 km/h 86% 0.0 mm CLR
03:54 13.3 °C 11.0 °C 1025.6 hPa WSW 2.9 km/h 13.0 km/h 86% 0.0 mm CLR
03:59 13.2 °C 10.9 °C 1025.6 hPa Calm   13.0 km/h 86% 0.0 mm CLR
04:04 13.2 °C 10.9 °C 1025.6 hPa Calm   1.6 km/h 86% 0.0 mm CLR
04:09 13.1 °C 11.0 °C 1025.6 hPa Calm   3.2 km/h 87% 0.0 mm CLR
04:14 12.9 °C 10.8 °C 1025.6 hPa Calm   13.0 km/h 87% 0.0 mm CLR
04:19 12.9 °C 10.8 °C 1025.6 hPa Calm   6.4 km/h 87% 0.0 mm CLR
04:24 12.9 °C 10.8 °C 1025.6 hPa Calm   13.0 km/h 87% 0.0 mm CLR
04:29 12.9 °C 10.8 °C 1025.6 hPa South 4.7 km/h 13.0 km/h 87% 0.0 mm CLR
04:34 12.9 °C 10.6 °C 1025.6 hPa South 3.2 km/h 9.7 km/h 86% 0.0 mm CLR
04:39 12.9 °C 10.8 °C 1025.3 hPa South 4.8 km/h 9.7 km/h 87% 0.0 mm CLR
04:44 12.9 °C 10.8 °C 1025.3 hPa SSW 5.8 km/h 13.0 km/h 87% 0.0 mm CLR
04:49 12.9 °C 10.8 °C 1025.3 hPa SSW 4.8 km/h 11.3 km/h 87% 0.0 mm CLR
04:54 12.9 °C 10.8 °C 1025.3 hPa SSW 5.8 km/h 13.0 km/h 87% 0.0 mm CLR
04:59 12.9 °C 10.8 °C 1025.3 hPa SSW 5.8 km/h 13.0 km/h 87% 0.0 mm CLR
05:04 12.8 °C 10.7 °C 1025.3 hPa SSW 4.8 km/h 11.3 km/h 87% 0.0 mm CLR
05:09 12.8 °C 10.7 °C 1025.3 hPa SSW 6.9 km/h 13.0 km/h 87% 0.0 mm CLR
05:14 12.8 °C 10.7 °C 1025.3 hPa SSW 6.9 km/h 13.0 km/h 87% 0.0 mm CLR
05:19 12.8 °C 10.7 °C 1025.3 hPa SSW 4.8 km/h 9.7 km/h 87% 0.0 mm CLR
05:24 12.8 °C 10.7 °C 1024.9 hPa SW 5.8 km/h 13.0 km/h 87% 0.0 mm CLR
05:29 12.8 °C 10.7 °C 1024.9 hPa SSW 4.7 km/h 13.0 km/h 87% 0.0 mm CLR
05:34 12.8 °C 10.7 °C 1024.9 hPa SSW 4.7 km/h 13.0 km/h 87% 0.0 mm CLR
05:39 12.8 °C 10.7 °C 1024.9 hPa SW 3.2 km/h 8.0 km/h 87% 0.0 mm CLR
05:44 12.9 °C 10.6 °C 1024.9 hPa WSW 3.2 km/h 8.0 km/h 86% 0.0 mm CLR
05:49 12.9 °C 10.6 °C 1024.9 hPa West 3.9 km/h 13.0 km/h 86% 0.0 mm CLR
05:54 12.8 °C 10.5 °C 1024.9 hPa West 3.2 km/h 8.0 km/h 86% 0.0 mm CLR
05:59 12.8 °C 10.5 °C 1024.9 hPa WSW 3.2 km/h 6.4 km/h 86% 0.0 mm CLR
06:04 12.7 °C 10.4 °C 1024.9 hPa West 3.9 km/h 13.0 km/h 86% 0.0 mm CLR
06:09 12.7 °C 10.4 °C 1024.9 hPa WSW 3.2 km/h 4.8 km/h 86% 0.0 mm CLR
06:14 12.6 °C 10.5 °C 1024.9 hPa West 3.2 km/h 13.0 km/h 87% 0.0 mm CLR
06:19 12.6 °C 10.5 °C 1024.9 hPa WSW 3.2 km/h 6.4 km/h 87% 0.0 mm CLR
06:24 12.6 °C 10.5 °C 1025.3 hPa SW 3.2 km/h 6.4 km/h 87% 0.0 mm CLR
06:29 12.7 °C 10.6 °C 1025.3 hPa SW 3.2 km/h 8.0 km/h 87% 0.0 mm CLR
06:34 12.7 °C 10.4 °C 1025.3 hPa SW 3.2 km/h 13.0 km/h 86% 0.0 mm CLR
06:39 12.6 °C 10.3 °C 1025.3 hPa SW 3.2 km/h 6.4 km/h 86% 0.0 mm CLR
06:44 12.6 °C 10.3 °C 1025.3 hPa SW 3.2 km/h 13.0 km/h 86% 0.0 mm CLR
06:49 12.6 °C 10.3 °C 1025.3 hPa SW 3.2 km/h 4.8 km/h 86% 0.0 mm CLR
06:54 12.5 °C 10.2 °C 1025.3 hPa SW 3.2 km/h 4.8 km/h 86% 0.0 mm CLR
06:59 12.4 °C 10.1 °C 1025.3 hPa WSW 3.2 km/h 4.8 km/h 86% 0.0 mm CLR
07:03 12.3 °C 10.2 °C 1025.3 hPa West 2.9 km/h 13.0 km/h 87% 0.0 mm CLR
07:08 12.3 °C 10.2 °C 1025.3 hPa West 3.2 km/h 13.0 km/h 87% 0.0 mm CLR
07:13 12.3 °C 10.2 °C 1025.3 hPa West 3.2 km/h 13.0 km/h 87% 0.0 mm CLR
07:18 12.2 °C 10.1 °C 1025.3 hPa West 3.2 km/h 13.0 km/h 87% 0.0 mm CLR
07:23 12.1 °C 10.0 °C 1025.3 hPa WSW 3.2 km/h 13.0 km/h 87% 0.0 mm CLR
07:25 12.1 °C 10.0 °C 1025.3 hPa West 3.2 km/h 13.0 km/h 87% 0.0 mm CLR
Murcia-Puente Tocinos, España
Compliments of Weather Underground - 1.75 mb

La estación de MeteoMurcia.com, publica sus datos en los siguientes proyectos:

Meteoclimatic www.awekas.at

W3Counter
Web Analytics